Effective Sunday, March 17, 2024, the National Weather Service National Data Buoy Center will discontinue its Dial-A-Buoy Interactive Voice Response system. For more information, see Service Change Notice 24-06 (PDF).

Station ROAM4 - Rock of Ages, MI Image indicating link to RSS feed of recent meteorological observations for station ROAM4


Conditions at ROAM4 as of
(10:00 pm EST on 02/21/2024)
0300 GMT on 02/22/2024:
     

Click on the graph icon in the table below to see a time series plot of the last five days of that observation.

5-day plot - Wind Direction Wind Direction (WDIR): W ( 270 deg true )
5-day plot - Wind Speed Wind Speed (WSPD): 12 kts
5-day plot - Wind Gust Wind Gust (GST): 13 kts
5-day plot - Atmospheric Pressure Atmospheric Pressure (PRES):29.87 in
5-day plot - Pressure Tendency Pressure Tendency (PTDY):+0.00 in ( Steady )
5-day plot - Air Temperature Air Temperature (ATMP): 35.1 °F
5-day plot - Wind Chill Wind Chill (CHILL): 25.9 °F
5-day plot - Wind Speed at 10 Meters Wind Speed at 10 meters (WSPD10M): 12 kts
5-day plot - Wind Speed at 20 Meters Wind Speed at 20 meters (WSPD20M): 12 kts
5-day plot -  Wind Speed, Wind Gust and Atmospheric Pressure Combined plot of Wind Speed, Gust, and Air Pressure
Continuous Winds
TIME
(EST)
5-day plot - Wind Direction WDIR 5-day plot - Wind Speed WSPD
10:00 pmW ( 267 deg ) 13 kts
9:50 pmW ( 268 deg ) 14 kts
9:40 pmW ( 269 deg ) 15 kts
9:30 pmW ( 268 deg ) 15 kts
9:20 pmW ( 268 deg ) 16 kts
9:10 pmW ( 265 deg ) 17 kts
 
Peak gust during the measurement hour
TIME
(EST)
5-day plot - Gust Direction GDR 5-day plot - Gust Speed GST
9:01 pmW ( 260 deg ) 19 kts
Previous observations
TIME
(EST)
5-day plot - Wind Direction
WDIR
 
5-day plot - Wind Speed
WSPD
kts
5-day plot - Wind Gust
GST
kts
5-day plot - Wave Height
WVHT
ft
5-day plot - Dominant Wave Period
DPD
sec
5-day plot - Average Wave Period
APD
sec
5-day plot - Mean Wave Direction
MWD
 
5-day plot - Atmospheric Pressure
PRES
in
5-day plot - Pressure Tendency
PTDY
in
5-day plot - Air Temperature
ATMP
°F
5-day plot - Water Temperature
WTMP
°F
5-day plot - Dew Point
DEWP
°F
5-day plot - Salinity
SAL
psu
5-day plot - Visibility
VIS
nmi
5-day plot - Tide (above MLLW)
TIDE
ft
2024-02-21 09:00 pm W 17 18----29.86+0.00 34.5-----
2024-02-21 08:00 pm W 19 21----29.87+0.00 34.9-----
2024-02-21 07:00 pmWSW 11 13----29.87+0.00 34.2-----
2024-02-21 06:00 pm SW 10 11----29.86+0.00 34.2-----
2024-02-21 05:00 pm SW 7 7----29.86-0.03 34.3-----
2024-02-21 04:00 pmWSW 10 10----29.86-0.04 34.2-----
2024-02-21 03:00 pm SW 8 8----29.87-0.04 34.3-----
2024-02-21 02:00 pmWSW 3 4----29.89-0.03 33.1-----
2024-02-21 01:00 pm- 0 0----29.90-0.01 35.8-----
2024-02-21 12:00 pm- 0 1----29.91+0.00 34.5-----
2024-02-21 11:00 amNNW 6 6----29.92+0.02 32.7-----
2024-02-21 10:00 amNNW 7 7----29.91+0.00 32.7-----
2024-02-21 09:00 amNNW 8 9----29.91+0.00 33.3-----
2024-02-21 08:00 am NW 9 9----29.90+0.01 34.0-----
2024-02-21 07:00 amWNW 13 13----29.91+0.01 36.5-----
2024-02-21 06:00 amWNW 10 11----29.90+0.01 35.8-----
2024-02-21 05:00 am W 12 13----29.89-0.01 35.1-----
2024-02-21 04:00 am W 16 16----29.89-0.03 34.3-----
2024-02-21 03:00 am W 18 20----29.89-0.03 34.2-----
2024-02-21 02:00 amWSW 12 13----29.91-0.03 34.3-----
2024-02-21 01:00 am W 9 9----29.92-0.02 33.4-----
2024-02-21 12:00 amWNW 3 3----29.92-0.03 34.2-----
2024-02-20 11:00 pmNNW 4 4----29.93-0.01 33.4-----
2024-02-20 10:00 pm N 9 9----29.94-0.01 33.3-----